Tracking 20621 objects as of 30-Mar-2020
HD Live streaming from Space Station
objects crossing your sky now

FREGAT R/B

Track FREGAT R/B now!


NORAD ID: 37848
Int'l Code: 2011-060C
Perigee: 23,606.4 km
Apogee: 23,660.5 km
Inclination: 56.6 °
Period: 862.1 minutes
Semi major axis: 30004 km
RCS: 2.697 m2 (large)
Launch date: October 21, 2011
Source: Commonwealth of Independent States (former USSR) (CIS)
Launch site: FRENCH GUIANA (FRGUI)

Note: This is a ROCKET BODY
aabbcc
Your satellite tracking list
Your tracking list is empty




NASA's NSSDC Master Catalog

Two Line Element Set (TLE):
1 37848U 11060C   20087.48131713 -.00000049 +00000-0 +00000-0 0  9997
2 37848 056.6359 047.2307 0009012 309.9724 233.8508 01.67041830051303
Source of the keplerian elements: AFSPC